Weather History for New York, NY

Change the Weather History Date:

Wednesday, January 9, 2013

  Actual Average Record
Temperature  
Mean Temperature 44 °F 33 °F  
Max Temperature 51 °F 39 °F 66 °F (2008)
Min Temperature 36 °F 27 °F 1 °F (1968)
Degree Days  
Heating Degree Days 21 32  
Month to date heating degree days 247 284  
Since 1 July heating degree days 1699 1890  
Cooling Degree Days 0 0  
Month to date cooling degree days 0 0  
Year to date cooling degree days 0 0  
Moisture  
Dew Point 32 °F    
Average Humidity 70    
Maximum Humidity 85    
Minimum Humidity 54    
Precipitation  
Precipitation 0.00 in 0.11 in 0.79 in (1953)
Month to date precipitation T 0.93  
Year to date precipitation T 0.93  
Snow  
Snow 0.00 in 0.30 in 3.70 in (1974)
Month to date snowfall T 2.2  
Since 1 July snowfall 2.0 7.7  
Snow Depth 0.00 in    
Sea Level Pressure  
Sea Level Pressure 30.28 in    
Wind  
Wind Speed 9 mph (SW)    
Max Wind Speed 25 mph    
Max Gust Speed 36 mph    
Visibility 9 miles    
Events      
T = Trace of Precipitation, MM = Missing Value Source: NWS Daily Summary

Daily Weather History Graph

Daily Weather History Graph

Search for Another Location

Airport:

Trip Planner

Search our weather history database for the weather conditions in past years. The results will help you decide how hot, cold, wet, or windy it might be!

Date:

Astronomy

Jan. 09, 2013 Rise Set
Actual Time 7:19 AM EST 4:46 PM EST
Civil Twilight 6:48 AM EST 5:16 PM EST
Nautical Twilight 6:14 AM EST 5:51 PM EST
Astronomical Twilight 5:41 AM EST 6:24 PM EST
Moon 4:55 AM EST (1/9) 2:45 PM EST (1/9)
Length of Visible Light 10h 28m
Length of Day
9h 27m
Waning Crescent, 6% of the Moon is Illuminated
Jan 9
Waning Crescent
Jan 11
New
Jan 18
First Quarter
Jan 26
Full
Feb 3
Last Quarter

Hourly Weather History & Observations

Time (EST) Temp. Windchill Dew Point Humidity Pressure Visibility Wind Dir Wind Speed Gust Speed Precip Events Conditions
12:51 AM 39.2 °F - 26.6 °F 61% 30.39 in 10.0 mi Calm Calm - N/A   Scattered Clouds
1:51 AM 41.0 °F - 27.0 °F 57% 30.38 in 10.0 mi Calm Calm - N/A   Partly Cloudy
2:51 AM 39.9 °F - 28.0 °F 63% 30.38 in 9.0 mi Calm Calm - N/A   Scattered Clouds
3:51 AM 39.0 °F - 30.9 °F 73% 30.37 in 8.0 mi Calm Calm - N/A   Mostly Cloudy
4:51 AM 39.9 °F - 28.0 °F 63% 30.36 in 9.0 mi Calm Calm - N/A   Mostly Cloudy
5:51 AM 37.9 °F 34.4 °F 30.9 °F 76% 30.36 in 7.0 mi NE 4.6 mph - N/A   Scattered Clouds
6:51 AM 37.9 °F 33.5 °F 33.1 °F 83% 30.37 in 7.0 mi ENE 5.8 mph - N/A   Mostly Cloudy
7:51 AM 37.0 °F 33.3 °F 33.1 °F 86% 30.38 in 5.0 mi ENE 4.6 mph - N/A   Mostly Cloudy
8:51 AM 39.0 °F - 33.1 °F 79% 30.38 in 6.0 mi Calm Calm - N/A   Haze
9:51 AM 44.1 °F - 34.0 °F 68% 30.37 in 5.0 mi Calm Calm - N/A   Haze
10:51 AM 46.9 °F - 32.0 °F 56% 30.31 in 10.0 mi SSE 9.2 mph - N/A   Overcast
11:51 AM 46.9 °F - 33.1 °F 59% 30.28 in 10.0 mi South 8.1 mph - N/A   Overcast
12:51 PM 48.2 °F - 32.0 °F 54% 30.24 in 10.0 mi SW 10.4 mph - N/A   Overcast
1:51 PM 48.0 °F - 33.1 °F 56% 30.26 in 10.0 mi SW 9.2 mph - N/A   Overcast
2:51 PM 48.0 °F - 34.0 °F 58% 30.15 in 10.0 mi South 15.0 mph - N/A   Overcast
3:51 PM 48.9 °F - 35.1 °F 59% 30.13 in 10.0 mi SSW 10.4 mph - N/A   Overcast
4:51 PM 50.0 °F - 36.0 °F 59% 30.14 in 10.0 mi SW 5.8 mph - N/A   Mostly Cloudy
5:51 PM 50.0 °F - 36.0 °F 59% 30.17 in 10.0 mi WSW 15.0 mph - N/A   Overcast
6:51 PM 50.0 °F - 35.1 °F 57% 30.17 in 10.0 mi WSW 17.3 mph 24.2 mph N/A   Partly Cloudy
7:51 PM 50.0 °F - 36.0 °F 59% 30.18 in 10.0 mi West 23.0 mph 29.9 mph N/A   Clear
8:51 PM 50.0 °F - 35.1 °F 57% 30.18 in 10.0 mi West 20.7 mph 28.8 mph N/A   Clear
9:51 PM 48.9 °F - 33.1 °F 54% 30.19 in 10.0 mi West 18.4 mph 28.8 mph N/A   Clear
10:51 PM 48.9 °F - 32.0 °F 52% 30.20 in 10.0 mi WSW 18.4 mph 25.3 mph N/A   Clear
11:51 PM 48.0 °F - 30.9 °F 52% 30.22 in 10.0 mi WSW 17.3 mph 21.9 mph N/A   Clear